STARLINK-35020, 65340

Orbit data source: Space-Track

STARLINK-35020, 65340 is a payload satellite owned by SpaceX/Seattle (US) in LEO that was launched on Wed, 27 Aug 2025 UTC via an FALCON 9 launch vehicle from the Air Force Eastern Test Range (AFETR). Payload-class satellites include a variety of spacecraft equipped with specific instruments for various scientific and technological missions. These include communications satellites like Starlink; space stations such as the ISS; scientific satellites like the Hubble; Earth observation satellites from companies like Planet Labs, Umbra, and HawkEye 360; GPS; miniature CubeSats for education and research; and military/defense satellites.

Loading next visibility...
Identifier
65340, 2025-189T
Orbit
LEO
Country
Flag of USUS
Related business
Manufacturer
SpaceX/Seattle
Mission
Operational Commercial Communications
Bus & Motor
STARLINK V2MO, Unknown motor
Mass
575 kg wet, ~530 kg dry
Launch date (UTC)
2025-08-27 (10 months ago)
Launch vehicle
FALCON 9
Launch site
Air Force Eastern Test Range (AFETR)
Object type
Payload
Rocket body
Debris
Shape & HBR
Box + 2 Pan, 17.7 m
Radar Cross Section
36.964 m², Large (>1 m²)

Expand to show TLE details & history
Last TLE update: 22 hours ago

TLE from 22 hours ago
0 STARLINK-35020
1 65340U 25189T   26170.94032463  .00022642  00000-0  73876-3 0  9990
2 65340  53.1593  90.9616 0001275  93.2406 266.8741 15.31718606 46727
Epoch: 2026-06-19T22:34Z
TLE epoch observation values (Epoch: 2026-06-19T22:34:04.048Z)
Latitude
-0.00002°
Longitude
-155.71738°
Altitude
471.632 km
Speed
7.631 km/s
True Right ascension
06h 03m 50s
True Declination
0° 00' 00"
Sunlit
Object was in daylight at epoch
Visualization orbit readout
Latitude
Unknown
Longitude
Unknown
Altitude
Unknown
Speed
Unknown
Apparent Right ascension
Unknown
Apparent Declination
Unknown
Sunlit
N/A
Visualization observer readout
Local Sidereal Time
07:13:47
Azimuth
Unknown
Elevation
Unknown
Doppler factor
Unknown
Orbital elements
Apogee altitude
471.814 km
Perigee altitude
470.068 km
Semi-major axis
6,849.078 km
Eccentricity
0.00013
Inclination
53.1593°
RAAN
90.9616°
Arg. of periapsis
93.2406°
True anomaly
266.85951°
Mean anomaly
266.8741°
Eccentric anomaly
266.86681°
Mean motion
3.82908 °/min
Orbital period
94.02 mins
BSTAR
0.00073876
Loading maneuver chart data...
Computing Atmospheric mass density...
Loading historical data...
Loading historical data...
Loading historical data...
Loading historical data...
Loading historical data...
Loading historical data...
Loading historical data...

Documentation

Showing up to 5 results
|